CW3224 Weather Reports


Display with metric or nautical units.
time (UTC)temp
F
wind
direction
speed
MPH
gust
MPH
rain 1hr
in
rain 24hr
in
rain mn
in
humidity
%
barometer
mb
20260508125926 50 237 1.0 5.0 0.00 0.00 0.00 57 1009.8
20260508125416 49 301 2.0 8.0 0.00 0.00 0.00 59 1009.8
20260508123927 48 301 2.0 6.0 0.00 0.00 0.00 62 1009.8
20260508122926 47 50 0.0 6.0 0.00 0.00 0.00 63 1009.8
20260508121927 46 101 1.0 3.0 0.00 0.00 0.00 64 1009.8
20260508120926 45 220 0.0 2.0 0.00 0.00 0.00 70 1009.9
20260508115922 43 301 1.0 3.0 0.00 0.00 0.00 72 1009.9
20260508114912 42 204 1.0 3.0 0.00 0.00 0.00 73 1009.9
20260508113912 40 301 0.0 0.0 0.00 0.00 0.00 77 1009.8
20260508112913 39 301 0.0 0.0 0.00 0.00 0.00 80 1009.7
20260508111906 38 183 0.0 0.0 0.00 0.00 0.00 82 1009.7
20260508110908 38 301 0.0 0.0 0.00 0.00 0.00 82 1009.7
20260508110339 37 183 0.0 0.0 0.00 0.00 0.00 82 1009.7
20260508105347 36 183 0.0 0.0 0.00 0.00 0.00 82 1009.7
20260508104347 36 183 0.0 0.0 0.00 0.00 0.00 82 1009.5
20260508102853 36 177 0.0 0.0 0.00 0.00 0.00 82 1009.2
20260508101850 36 183 1.0 2.0 0.00 0.00 0.00 82 1009.2
20260508100849 36 183 1.0 2.0 0.00 0.00 0.00 81 1008.8
20260508095850 36 183 0.0 1.0 0.00 0.00 0.00 82 1009.0
20260508094838 36 182 0.0 2.0 0.00 0.00 0.00 82 1009.0
20260508093839 36 182 0.0 0.0 0.00 0.00 0.00 81 1008.7
20260508092838 35 301 0.0 2.0 0.00 0.00 0.00 81 1008.8
20260508091836 36 301 0.0 2.0 0.00 0.00 0.00 81 1008.8
20260508090836 36 301 0.0 2.0 0.00 0.00 0.00 81 1008.6
20260508085835 36 301 0.0 2.0 0.00 0.00 0.00 80 1008.6
20260508084822 36 301 0.0 0.0 0.00 0.00 0.00 79 1008.6
20260508083822 36 301 0.0 2.0 0.00 0.00 0.00 79 1008.6
20260508082821 36 301 0.0 1.0 0.00 0.00 0.00 79 1008.4
20260508081820 36 301 0.0 1.0 0.00 0.00 0.00 78 1008.4
20260508080815 36 301 0.0 0.0 0.00 0.00 0.00 78 1008.2
20260508075815 37 301 0.0 1.0 0.00 0.00 0.00 78 1008.1
20260508074812 37 301 1.0 2.0 0.00 0.00 0.00 78 1008.1
20260508073814 37 301 0.0 0.0 0.00 0.01 0.00 78 1007.6
20260508072813 37 301 0.0 0.0 0.00 0.01 0.00 79 1007.6
20260508071812 37 301 0.0 0.0 0.00 0.01 0.00 77 1007.6
20260508071252 38 301 0.0 0.0 0.00 0.01 0.00 77 1007.5
20260508070248 38 301 0.0 0.0 0.00 0.01 0.00 77 1007.5
20260508064803 38 301 0.0 0.0 0.00 0.01 0.00 77 1007.5
20260508063803 38 301 0.0 1.0 0.00 0.01 0.00 77 1007.6
20260508063248 38 301 0.0 1.0 0.00 0.01 0.00 76 1007.6
20260508062238 39 301 0.0 2.0 0.00 0.01 0.00 76 1007.6
20260508060802 39 301 0.0 2.0 0.00 0.01 0.00 75 1007.6
20260508055804 40 301 0.0 0.0 0.00 0.01 0.00 74 1007.7
20260508055236 40 301 0.0 0.0 0.00 0.01 0.00 74 1007.7
20260508054231 40 301 0.0 0.0 0.00 0.01 0.00 74 1007.9
20260508053238 40 301 0.0 0.0 0.00 0.01 0.00 73 1008.1
20260508051756 41 301 0.0 0.0 0.00 0.01 0.00 72 1008.1
20260508050757 41 301 0.0 0.0 0.00 0.01 0.00 70 1008.1
20260508050239 41 301 0.0 0.0 0.00 0.01 0.00 70 1008.2
20260508045226 42 301 0.0 0.0 0.00 0.01 0.00 69 1008.2
20260508043746 42 301 0.0 0.0 0.00 0.01 0.00 69 1008.3
20260508042745 42 64 0.0 0.0 0.00 0.01 0.00 68 1008.3
20260508041742 43 64 0.0 0.0 0.00 0.02 0.00 66 1008.3
20260508040743 43 65 0.0 0.0 0.00 0.02 0.00 65 1008.3
20260508035741 44 301 0.0 0.0 0.00 0.02 0.02 65 1008.2
20260508034741 44 65 0.0 0.0 0.00 0.02 0.02 64 1008.2
20260508033742 44 65 0.0 0.0 0.00 0.04 0.02 65 1008.2
20260508033222 45 301 1.0 2.0 0.00 0.04 0.02 65 1008.2
20260508031739 45 14 0.0 3.0 0.00 0.04 0.02 63 1008.2
20260508030740 46 205 0.0 0.0 0.00 0.04 0.02 64 1008.1
20260508025740 46 205 0.0 0.0 0.00 0.04 0.02 62 1008.1
20260508024739 46 205 0.0 0.0 0.00 0.04 0.02 60 1008.1
20260508023740 47 205 0.0 2.0 0.00 0.04 0.02 59 1008.1
20260508022741 47 204 0.0 2.0 0.00 0.04 0.02 60 1008.0
20260508021725 48 301 0.0 0.0 0.00 0.05 0.02 61 1008.0
20260508021200 48 301 0.0 0.0 0.00 0.05 0.02 58 1008.1
20260508015724 48 301 0.0 2.0 0.00 0.05 0.02 57 1008.1
20260508014723 48 301 1.0 2.0 0.00 0.05 0.02 57 1008.1
20260508013721 49 301 0.0 0.0 0.00 0.05 0.02 57 1007.7
20260508012722 49 301 0.0 0.0 0.00 0.05 0.02 57 1007.6
20260508011712 50 301 0.0 0.0 0.00 0.05 0.02 56 1007.6
20260508010712 50 301 0.0 1.0 0.00 0.05 0.02 54 1007.4
20260508005712 50 301 0.0 2.0 0.00 0.05 0.02 53 1007.1
20260508004709 51 301 0.0 0.0 0.00 0.05 0.02 53 1007.1
20260508003708 51 301 0.0 0.0 0.00 0.05 0.02 52 1006.9
20260508002658 52 301 0.0 0.0 0.00 0.05 0.02 52 1006.9
20260508001700 53 264 0.0 0.0 0.00 0.05 0.02 50 1006.9
20260508000658 53 301 0.0 0.0 0.00 0.05 0.02 49 1006.7
20260507235658 54 301 0.0 1.0 0.00 0.05 0.02 47 1006.6
20260507234658 55 301 0.0 1.0 0.00 0.05 0.02 46 1006.6
20260507233657 55 301 1.0 3.0 0.00 0.05 0.02 45 1006.5
20260507232657 56 335 1.0 4.0 0.00 0.05 0.02 45 1006.3
20260507231657 56 301 2.0 5.0 0.00 0.05 0.02 43 1006.3
20260507230658 56 301 2.0 5.0 0.00 0.05 0.02 43 1006.1
20260507225651 57 301 2.0 4.0 0.00 0.06 0.02 42 1006.0
20260507224649 57 301 2.0 4.0 0.00 0.08 0.02 41 1006.0
20260507223647 57 288 2.0 5.0 0.00 0.09 0.02 43 1005.9
20260507222647 58 301 2.0 8.0 0.00 0.10 0.02 41 1005.8
20260507222121 58 333 2.0 5.0 0.00 0.11 0.02 41 1005.8
20260507220646 58 58 2.0 6.0 0.00 0.12 0.02 43 1005.6
20260507220118 58 221 2.0 5.0 0.00 0.15 0.02 41 1005.6
20260507214647 59 89 0.0 4.0 0.00 0.16 0.02 41 1005.6
20260507214125 59 85 2.0 5.0 0.00 0.17 0.02 41 1005.4
20260507212648 59 301 3.0 7.0 0.00 0.18 0.02 41 1005.5
20260507211644 60 301 3.0 8.0 0.00 0.18 0.02 40 1005.5
20260507210646 60 168 2.0 7.0 0.00 0.18 0.02 40 1005.5
20260507210124 60 301 2.0 5.0 0.00 0.18 0.02 41 1005.5
20260507205131 60 301 2.0 6.0 0.00 0.18 0.02 40 1005.5
20260507203646 61 301 2.0 11.0 0.00 0.18 0.02 40 1005.4
20260507202644 62 301 3.0 7.0 0.00 0.18 0.02 40 1005.2
20260507201645 62 260 3.0 6.0 0.00 0.19 0.02 38 1005.2
20260507200645 63 55 2.0 7.0 0.00 0.20 0.02 40 1005.3
20260507195644 63 349 3.0 7.0 0.00 0.21 0.02 40 1005.4
20260507194645 63 51 3.0 8.0 0.00 0.21 0.02 41 1005.4
20260507194126 63 246 3.0 6.0 0.00 0.21 0.02 42 1005.5
20260507192641 64 296 3.0 9.0 0.00 0.21 0.02 37 1005.6
20260507191640 64 76 2.0 9.0 0.00 0.21 0.02 40 1005.6
20260507190640 64 190 2.0 7.0 0.00 0.22 0.02 37 1005.8
20260507185641 64 301 3.0 9.0 0.00 0.22 0.02 38 1006.0
20260507184641 65 277 3.0 8.0 0.00 0.23 0.02 39 1006.0
20260507183638 65 32 4.0 11.0 0.00 0.23 0.02 38 1006.1
20260507183121 66 214 3.0 6.0 0.00 0.24 0.02 37 1006.1
20260507181638 66 19 3.0 8.0 0.00 0.24 0.02 39 1006.1
20260507180639 65 44 2.0 7.0 0.00 0.24 0.02 37 1006.4
20260507175636 65 268 3.0 6.0 0.00 0.24 0.02 40 1006.4
20260507174637 65 4 3.0 7.0 0.00 0.24 0.02 39 1006.4
20260507173636 65 277 2.0 7.0 0.00 0.24 0.02 40 1006.1
20260507172634 65 89 2.0 9.0 0.00 0.24 0.02 46 1006.2
20260507171635 64 27 3.0 8.0 0.00 0.24 0.02 39 1006.2
20260507170635 64 289 3.0 7.0 0.00 0.24 0.02 40 1006.5
20260507165634 64 258 3.0 10.0 0.00 0.24 0.02 46 1006.6
20260507164634 64 22 3.0 9.0 0.00 0.24 0.02 44 1006.6
20260507164114 64 316 3.0 8.0 0.00 0.24 0.02 50 1007.0
20260507162635 63 273 3.0 10.0 0.00 0.24 0.02 48 1007.1
20260507161635 63 310 3.0 7.0 0.00 0.24 0.02 52 1007.1
20260507160635 63 285 3.0 8.0 0.00 0.24 0.02 51 1007.2
20260507155625 62 19 3.0 9.0 0.00 0.24 0.02 54 1007.1
20260507155532 61 285 3.0 8.0 0.00 0.24 0.02 56 1007.1
20260507153624 60 212 2.0 6.0 0.00 0.24 0.02 60 1007.4
20260507152625 60 301 2.0 6.0 0.00 0.24 0.02 58 1007.4
20260507152110 59 276 2.0 7.0 0.00 0.24 0.02 63 1007.4
20260507151106 58 148 2.0 5.0 0.00 0.24 0.02 62 1007.6
20260507145616 58 268 1.0 4.0 0.00 0.24 0.02 63 1007.6
20260507145058 58 279 3.0 7.0 0.00 0.24 0.02 63 1007.6
20260507143615 58 246 3.0 6.0 0.00 0.24 0.02 69 1007.6
20260507142614 57 208 2.0 7.0 0.00 0.24 0.02 69 1007.6
20260507141613 56 266 3.0 7.0 0.00 0.24 0.02 68 1007.6
20260507140614 56 301 1.0 4.0 0.00 0.24 0.02 74 1007.6
20260507135614 55 301 1.0 5.0 0.00 0.24 0.02 72 1007.6
20260507134612 55 73 2.0 5.0 0.00 0.24 0.02 72 1007.6
20260507134100 54 154 1.0 6.0 0.00 0.24 0.02 75 1007.5
20260507132610 54 193 2.0 5.0 0.00 0.24 0.02 77 1007.6
20260507132044 53 56 2.0 5.0 0.00 0.24 0.02 78 1007.6